Regional Weather Roundup
Issued by NWS

Home | Current Version | Previous Version | Graphics & Text | Print | Product List | Glossary On
Versions: 1 2 3 4 5 6 7 8 9 10 11 12 13 14 15 16 17 18 19 20 21 22 23 24 25 26 27 28 29 30 31 32 33 34 35 36 37 38 39 40 41 42 43 44 45 46 47 48 49 50
000
ASUS45 KSLC 021610
RWRUT

UTAH REGIONAL WEATHER ROUNDUP
NATIONAL WEATHER SERVICE SALT LAKE CITY UT
1000 AM MDT TUE JUN 02 2015

UTZ001>011-023>025-021700-

NORTHERN UTAH

CITY           SKY/WX    TMP DP  RH WIND       PRES   REMARKS
BRIGHAM CITY   SUNNY     66  46  48 CALM      29.98R
HILL AFB       SUNNY     67  47  49 VRB2      29.99S
LOGAN          SUNNY     59  47  64 CALM      29.99S
OGDEN          SUNNY     70  48  45 SW6       29.97S
PROVO AIRPORT  SUNNY     75  32  20 SE6       29.98S
SALT LAKE CITY MOSUNNY   70  51  51 NW5       29.96S
VERNAL         SUNNY     70  38  31 E5        30.01S
WENDOVER       SUNNY     70  36  28 NW14G29   29.98S
HEBER CITY     SUNNY     70  32  24 SW9       30.03R
WEST JORDAN    SUNNY     70  39  32 CALM      29.99R

$$

UTZ012>022-026-027-021700-

SOUTHERN/CENTRAL UTAH

CITY           SKY/WX    TMP DP  RH WIND       PRES   REMARKS
BLANDING       SUNNY     70  26  19 SE9       30.21S
BRYCE CANYON   SUNNY     62  24  23 SE13      30.21S
CEDAR CITY     SUNNY     71  25  17 SW15      30.05S
DELTA          SUNNY     72  21  14 SW7       30.01S
HANKSVILLE     SUNNY     81  23  12 SW12G23   30.01S
MILFORD        SUNNY     72  30  21 S17       30.03S
MOAB/CYNLANDS  SUNNY     81  22  11 SW14G23   29.98S
PRICE          SUNNY     71  23  16 SE9       30.05F
ST GEORGE      SUNNY     79  27  14 NW7       29.96S
KANAB          SUNNY     72  25  17 S8        30.11S

$$

REGIONAL REPORTS     COLORADO/ARIZONA

CITY           SKY/WX    TMP DP  RH WIND       PRES   REMARKS
CRAIG, CO      SUNNY     69  46  43 N3        30.07S
GRAND JUNCTION SUNNY     79  30  16 S8        30.00F
RIFLE          SUNNY     68  44  42 CALM      30.06F
MONTROSE       SUNNY     77  26  15 W8        30.10F
CORTEZ         SUNNY     74  25  16 S9        30.15F
PAGE, AZ       SUNNY     76  24  14 NW6       30.04S
GRAND CANYON   SUNNY     69  26  20 S10G23    30.20R
KINGMAN        SUNNY     81  25  12 SW12      29.98F
FLAGSTAFF      SUNNY     67  26  21 SW18G28   30.23R

$$

REGIONAL REPORTS    NEVADA/IDAHO/WYOMING

CITY           SKY/WX    TMP DP  RH WIND       PRES   REMARKS
LAS VEGAS, NV  SUNNY     80  29  15 SW9       29.87R
ELY            SUNNY     64  40  41 N9        30.09S
ELKO           SUNNY     62  38  40 SW9       30.08S
POCATELLO, ID  PTSUNNY   55  52  89 SW9       30.04S
BURLEY         MOSUNNY   62  47  57 W12G23    30.03S
EVANSTON, WY   SUNNY     61  38  42 SW13      30.09S
ROCK SPRINGS   MOSUNNY   62  41  46 NW5       30.07R
KEMMERER       MOSUNNY   61  37  41 CALM      30.10S

$$



USA.gov is the U.S. government's official web portal to all federal, state and local government web resources and services.